| time (UTC) | temp F | wind direction | speed knots | gust knots | rain 1hr in | rain 24hr in | rain mn in | humidity % | barometer mb |
| 20260906075957 | 69 | 42 | 1.7 | 3.5 | 0.00 | 0.05 | 0.00 | 88 | 1015.1 |
| 20260906074457 | 69 | 305 | 1.7 | 4.3 | 0.00 | 0.05 | 0.00 | 90 | 1015.2 |
| 20260906072959 | 69 | 5 | 1.7 | 4.3 | 0.00 | 0.05 | 0.00 | 91 | 1015.1 |
| 20260906071459 | 69 | 141 | 1.7 | 4.3 | 0.00 | 0.05 | 0.00 | 92 | 1014.9 |
| 20260906065958 | 70 | 136 | 0.9 | 5.2 | 0.00 | 0.05 | 0.00 | 92 | 1015.0 |
| 20260906064458 | 70 | 73 | 0.9 | 3.5 | 0.00 | 0.05 | 0.00 | 92 | 1015.0 |
| 20260906061500 | 72 | 5 | 1.7 | 8.7 | 0.00 | 0.05 | 0.00 | 92 | 1015.2 |
| 20260906055958 | 72 | 38 | 1.7 | 4.3 | 0.00 | 0.05 | 0.00 | 92 | 1015.1 |
| 20260906052959 | 73 | 36 | 1.7 | 4.3 | 0.00 | 0.05 | 0.00 | 94 | 1014.8 |
| 20260906044459 | 73 | 30 | 1.7 | 4.3 | 0.00 | 0.05 | 0.00 | 94 | 1014.4 |
| 20260906043000 | 73 | 13 | 0.0 | 2.6 | 0.00 | 0.05 | 0.00 | 94 | 1014.2 |
| 20260906041500 | 73 | 5 | 0.0 | 0.0 | 0.00 | 0.05 | 0.00 | 95 | 1014.1 |
| 20260906040004 | 73 | 12 | 0.0 | 0.0 | 0.00 | 0.05 | 0.00 | 94 | 1014.0 |
| 20260906031501 | 73 | 5 | 0.0 | 0.0 | 0.00 | 0.05 | 0.05 | 95 | 1014.1 |
| 20260906030000 | 73 | 5 | 0.0 | 0.0 | 0.00 | 0.05 | 0.05 | 95 | 1014.2 |
| 20260906024459 | 73 | 5 | 0.0 | 0.0 | 0.00 | 0.05 | 0.05 | 94 | 1014.1 |
| 20260906023000 | 73 | 5 | 0.0 | 0.0 | 0.00 | 0.05 | 0.05 | 94 | 1014.4 |
| 20260906021459 | 73 | 5 | 0.0 | 0.0 | 0.00 | 0.05 | 0.05 | 93 | 1014.2 |
| 20260906020001 | 73 | 5 | 0.0 | 0.0 | 0.00 | 0.05 | 0.05 | 92 | 1014.0 |
| 20260906014501 | 74 | 5 | 0.0 | 0.0 | 0.00 | 0.05 | 0.05 | 90 | 1013.8 |
| 20260906011500 | 75 | 5 | 0.0 | 0.0 | 0.00 | 0.05 | 0.05 | 89 | 1013.5 |
| 20260906010000 | 75 | 5 | 0.0 | 0.0 | 0.00 | 0.05 | 0.05 | 88 | 1013.4 |
| 20260906004500 | 76 | 11 | 0.0 | 0.0 | 0.00 | 0.05 | 0.05 | 86 | 1013.1 |
| 20260906003000 | 77 | 25 | 0.0 | 1.7 | 0.00 | 0.05 | 0.05 | 85 | 1012.8 |
| 20260906001500 | 78 | 25 | 1.7 | 4.3 | 0.00 | 0.05 | 0.05 | 83 | 1012.6 |
| 20260906000001 | 79 | 75 | 2.6 | 7.0 | 0.00 | 0.05 | 0.05 | 81 | 1012.6 |
| 20260905234459 | 80 | 360 | 2.6 | 8.7 | 0.00 | 0.05 | 0.05 | 79 | 1012.8 |
| 20260905232959 | 82 | 16 | 3.5 | 13.0 | 0.00 | 0.05 | 0.05 | 79 | 1012.8 |
| 20260905230001 | 83 | 13 | 0.0 | 0.0 | 0.00 | 0.05 | 0.05 | 83 | 1012.2 |
| 20260905224500 | 84 | 13 | 0.9 | 2.6 | 0.00 | 0.05 | 0.05 | 82 | 1012.2 |
| 20260905223000 | 85 | 13 | 0.9 | 1.7 | 0.00 | 0.05 | 0.05 | 78 | 1012.0 |
| 20260905221501 | 88 | 36 | 0.9 | 2.6 | 0.00 | 0.05 | 0.05 | 73 | 1011.9 |
| 20260905215959 | 90 | 292 | 0.9 | 2.6 | 0.00 | 0.05 | 0.05 | 65 | 1011.5 |
| 20260905214458 | 91 | 326 | 1.7 | 3.5 | 0.00 | 0.05 | 0.05 | 61 | 1012.0 |
| 20260905205959 | 92 | 5 | 2.6 | 5.2 | 0.00 | 0.47 | 0.05 | 60 | 1012.3 |
| 20260905204459 | 92 | 28 | 2.6 | 7.0 | 0.00 | 0.47 | 0.05 | 60 | 1012.3 |
| 20260905202958 | 91 | 321 | 3.5 | 7.0 | 0.00 | 0.47 | 0.05 | 61 | 1012.4 |
| 20260905201458 | 91 | 346 | 3.5 | 8.7 | 0.00 | 0.47 | 0.05 | 60 | 1012.6 |
| 20260905200001 | 90 | 225 | 3.5 | 7.0 | 0.00 | 0.47 | 0.05 | 62 | 1012.7 |
| 20260905194500 | 90 | 302 | 2.6 | 5.2 | 0.00 | 0.47 | 0.05 | 59 | 1013.1 |
| 20260905193000 | 90 | 288 | 3.5 | 7.8 | 0.00 | 0.47 | 0.05 | 60 | 1013.3 |
| 20260905191501 | 91 | 217 | 2.6 | 7.8 | 0.00 | 0.47 | 0.05 | 58 | 1013.4 |
| 20260905182959 | 89 | 298 | 4.3 | 8.7 | 0.00 | 0.47 | 0.05 | 61 | 1014.0 |
| 20260905180001 | 87 | 300 | 3.5 | 7.8 | 0.00 | 0.47 | 0.05 | 63 | 1014.0 |
| 20260905174459 | 88 | 204 | 2.6 | 9.6 | 0.00 | 0.47 | 0.05 | 61 | 1014.1 |
| 20260905172959 | 87 | 233 | 2.6 | 8.7 | 0.00 | 0.47 | 0.05 | 62 | 1014.1 |
| 20260905170000 | 84 | 284 | 2.6 | 6.1 | 0.00 | 0.47 | 0.05 | 66 | 1014.7 |
| 20260905164500 | 84 | 295 | 3.5 | 7.0 | 0.00 | 0.47 | 0.05 | 64 | 1015.0 |
| 20260905162959 | 84 | 263 | 2.6 | 6.1 | 0.00 | 0.47 | 0.05 | 66 | 1015.1 |
| 20260905161500 | 84 | 221 | 2.6 | 6.1 | 0.00 | 0.47 | 0.05 | 64 | 1015.5 |
| 20260905155959 | 83 | 263 | 1.7 | 3.5 | 0.00 | 0.47 | 0.05 | 65 | 1015.4 |
| 20260905154458 | 82 | 246 | 2.6 | 5.2 | 0.00 | 0.47 | 0.05 | 66 | 1015.3 |
| 20260905152958 | 81 | 200 | 2.6 | 7.8 | 0.00 | 0.47 | 0.05 | 68 | 1015.0 |
| 20260905151458 | 80 | 172 | 3.5 | 7.8 | 0.00 | 0.47 | 0.05 | 70 | 1014.9 |
| 20260905144459 | 77 | 231 | 3.5 | 7.0 | 0.00 | 0.47 | 0.05 | 75 | 1015.3 |
| 20260905141459 | 76 | 202 | 1.7 | 5.2 | 0.00 | 0.47 | 0.05 | 80 | 1015.3 |
| 20260905140000 | 74 | 248 | 3.5 | 8.7 | 0.00 | 0.47 | 0.05 | 80 | 1015.4 |
| 20260905133000 | 74 | 155 | 2.6 | 6.1 | 0.00 | 0.47 | 0.05 | 84 | 1016.3 |
| 20260905131500 | 72 | 202 | 0.9 | 3.5 | 0.00 | 0.47 | 0.05 | 88 | 1016.4 |
| 20260905125958 | 71 | 294 | 0.0 | 1.7 | 0.00 | 0.47 | 0.05 | 92 | 1016.3 |
| 20260905124459 | 70 | 250 | 0.0 | 3.5 | 0.00 | 0.47 | 0.05 | 93 | 1016.1 |
| 20260905122958 | 69 | 262 | 0.0 | 2.6 | 0.00 | 0.47 | 0.05 | 95 | 1016.1 |
| 20260905120000 | 68 | 166 | 0.0 | 0.0 | 0.00 | 0.47 | 0.05 | 94 | 1016.3 |
| 20260905112959 | 68 | 315 | 0.0 | 0.0 | 0.00 | 0.47 | 0.05 | 94 | 1016.7 |
| 20260905111500 | 69 | 315 | 0.0 | 0.0 | 0.05 | 0.47 | 0.05 | 93 | 1016.4 |
| 20260905110000 | 69 | 40 | 1.7 | 4.3 | 0.05 | 0.47 | 0.05 | 90 | 1016.3 |
| 20260905104459 | 69 | 123 | 0.9 | 7.0 | 0.05 | 0.47 | 0.05 | 90 | 1016.2 |
| 20260905102958 | 71 | 323 | 2.6 | 7.0 | 0.05 | 0.47 | 0.05 | 88 | 1016.3 |
| 20260905095958 | 71 | 5 | 6.1 | 14.8 | 0.00 | 0.42 | 0.00 | 97 | 1016.3 |
| 20260905094458 | 71 | 12 | 0.0 | 0.0 | 0.00 | 0.42 | 0.00 | 98 | 1014.5 |
| 20260905092958 | 71 | 12 | 0.0 | 0.0 | 0.00 | 0.42 | 0.00 | 98 | 1014.2 |
| 20260905091458 | 71 | 12 | 0.0 | 0.0 | 0.00 | 0.42 | 0.00 | 98 | 1014.2 |
| 20260905085958 | 71 | 12 | 0.0 | 0.0 | 0.00 | 0.42 | 0.00 | 98 | 1014.3 |
| 20260905084458 | 71 | 12 | 0.0 | 0.0 | 0.00 | 0.42 | 0.00 | 98 | 1014.3 |
| 20260905082957 | 71 | 12 | 0.0 | 0.0 | 0.00 | 0.42 | 0.00 | 98 | 1014.1 |
| 20260905081458 | 71 | 12 | 0.0 | 0.0 | 0.00 | 0.42 | 0.00 | 98 | 1014.1 |